| time (UTC) | temp C | wind direction | speed KPH | gust KPH | rain 1hr cm | rain 24hr cm | rain mn cm | humidity % | barometer mb |
| 20260504213553 | 20 | 113 | 3.2 | 6.4 | 0.00 | 0.00 | 0.00 | 59 | 1010.5 |
| 20260504212614 | 20 | 113 | 8.0 | 9.7 | 0.00 | 0.00 | 0.00 | 61 | 1010.4 |
| 20260504211556 | 20 | 158 | 1.6 | 3.2 | 0.00 | 0.00 | 0.00 | 63 | 1010.4 |
| 20260504210617 | 20 | 158 | 3.2 | 3.2 | 0.00 | 0.00 | 0.00 | 60 | 1010.2 |
| 20260504205554 | 20 | 113 | 4.8 | 8.0 | 0.00 | 0.00 | 0.00 | 60 | 1010.1 |
| 20260504204613 | 20 | 135 | 3.2 | 3.2 | 0.00 | 0.00 | 0.00 | 62 | 1010.1 |
| 20260504202614 | 21 | 113 | 1.6 | 3.2 | 0.00 | 0.00 | 0.00 | 56 | 1009.7 |
| 20260504201553 | 21 | 203 | 0.0 | 0.0 | 0.00 | 0.00 | 0.00 | 59 | 1009.6 |
| 20260504200615 | 21 | 225 | 3.2 | 3.2 | 0.00 | 0.00 | 0.00 | 57 | 1009.4 |
| 20260504195553 | 22 | 135 | 3.2 | 3.2 | 0.00 | 0.00 | 0.00 | 54 | 1009.1 |
| 20260504194613 | 22 | 113 | 3.2 | 3.2 | 0.00 | 0.00 | 0.00 | 54 | 1009.1 |
| 20260504193552 | 22 | 225 | 0.0 | 3.2 | 0.00 | 0.00 | 0.00 | 54 | 1009.0 |
| 20260504190613 | 23 | 45 | 9.7 | 14.5 | 0.00 | 0.00 | 0.00 | 51 | 1008.4 |
| 20260504185552 | 23 | 68 | 8.0 | 14.5 | 0.00 | 0.00 | 0.00 | 51 | 1008.3 |
| 20260504184614 | 23 | 45 | 8.0 | 11.3 | 0.00 | 0.00 | 0.00 | 51 | 1008.3 |
| 20260504183554 | 23 | 68 | 8.0 | 14.5 | 0.00 | 0.00 | 0.00 | 51 | 1008.2 |
| 20260504181553 | 24 | 68 | 6.4 | 9.7 | 0.00 | 0.00 | 0.00 | 50 | 1008.2 |
| 20260504180613 | 24 | 135 | 8.0 | 17.7 | 0.00 | 0.00 | 0.00 | 49 | 1008.1 |
| 20260504175554 | 24 | 90 | 11.3 | 14.5 | 0.00 | 0.00 | 0.00 | 49 | 1008.1 |
| 20260504174612 | 25 | 68 | 6.4 | 14.5 | 0.00 | 0.00 | 0.00 | 47 | 1008.1 |
| 20260504173553 | 24 | 113 | 9.7 | 17.7 | 0.00 | 0.00 | 0.00 | 48 | 1008.1 |
| 20260504171554 | 25 | 45 | 9.7 | 17.7 | 0.00 | 0.00 | 0.00 | 45 | 1008.2 |
| 20260504170613 | 23 | 338 | 4.8 | 8.0 | 0.00 | 0.00 | 0.00 | 56 | 1008.2 |
| 20260504150613 | 26 | 113 | 12.9 | 22.5 | 0.00 | 0.00 | 0.00 | 38 | 1008.1 |
| 20260504140614 | 25 | 315 | 8.0 | 17.7 | 0.00 | 0.00 | 0.00 | 49 | 1008.7 |
| 20260504130617 | 24 | 68 | 8.0 | 14.5 | 0.00 | 0.00 | 0.00 | 55 | 1009.1 |
| 20260504081555 | 21 | 293 | 3.2 | 3.2 | 0.00 | 0.00 | 0.00 | 78 | 1011.9 |
| 20260504080613 | 21 | 180 | 3.2 | 6.4 | 0.00 | 0.00 | 0.00 | 78 | 1011.8 |
| 20260504050615 | 16 | 225 | 3.2 | 3.2 | 0.00 | 0.00 | 0.00 | 90 | 1011.1 |
| 20260504045553 | 17 | 113 | 0.0 | 0.0 | 0.00 | 0.00 | 0.00 | 90 | 1010.9 |
| 20260504044614 | 17 | 135 | 3.2 | 3.2 | 0.00 | 0.00 | 0.00 | 90 | 1010.9 |
| 20260504042614 | 17 | 113 | 0.0 | 0.0 | 0.00 | 0.00 | 0.00 | 89 | 1010.8 |
| 20260504041552 | 17 | 135 | 0.0 | 0.0 | 0.00 | 0.00 | 0.00 | 89 | 1010.9 |
| 20260504040613 | 17 | 135 | 0.0 | 0.0 | 0.00 | 0.00 | 0.00 | 89 | 1011.0 |
| 20260504035553 | 18 | 113 | 0.0 | 0.0 | 0.00 | 0.00 | 0.00 | 89 | 1011.1 |
| 20260504034613 | 18 | 135 | 0.0 | 0.0 | 0.00 | 0.00 | 0.00 | 88 | 1011.2 |
| 20260504033556 | 18 | 135 | 0.0 | 0.0 | 0.00 | 0.00 | 0.00 | 88 | 1011.1 |
| 20260504032613 | 18 | 113 | 0.0 | 0.0 | 0.00 | 0.00 | 0.00 | 88 | 1011.1 |
| 20260504031554 | 18 | 135 | 0.0 | 0.0 | 0.00 | 0.00 | 0.00 | 88 | 1011.2 |
| 20260504025553 | 18 | 90 | 3.2 | 3.2 | 0.00 | 0.00 | 0.00 | 89 | 1011.3 |
| 20260504024613 | 18 | 113 | 1.6 | 3.2 | 0.00 | 0.00 | 0.00 | 89 | 1011.3 |
| 20260504023552 | 18 | 113 | 0.0 | 0.0 | 0.00 | 0.00 | 0.00 | 88 | 1011.4 |
| 20260504022613 | 18 | 90 | 0.0 | 0.0 | 0.00 | 0.00 | 0.00 | 88 | 1011.4 |
| 20260504020613 | 18 | 315 | 0.0 | 0.0 | 0.00 | 0.00 | 0.00 | 88 | 1011.5 |
| 20260504015553 | 18 | 293 | 0.0 | 0.0 | 0.00 | 0.00 | 0.00 | 88 | 1011.6 |
| 20260504014613 | 19 | 315 | 0.0 | 0.0 | 0.00 | 0.00 | 0.00 | 88 | 1011.5 |
| 20260504012613 | 18 | 293 | 0.0 | 0.0 | 0.00 | 0.00 | 0.00 | 88 | 1011.5 |
| 20260504011553 | 18 | 293 | 0.0 | 0.0 | 0.00 | 0.00 | 0.00 | 88 | 1011.7 |
| 20260504005552 | 19 | 293 | 1.6 | 3.2 | 0.00 | 0.00 | 0.00 | 88 | 1011.8 |
| 20260504004614 | 19 | 315 | 3.2 | 3.2 | 0.00 | 0.00 | 0.00 | 88 | 1011.9 |
| 20260504003553 | 19 | 293 | 3.2 | 3.2 | 0.00 | 0.00 | 0.00 | 88 | 1012.0 |
| 20260504001552 | 19 | 315 | 0.0 | 0.0 | 0.00 | 0.00 | 0.00 | 88 | 1012.0 |
| 20260504000616 | 19 | 338 | 1.6 | 3.2 | 0.00 | 0.00 | 0.00 | 87 | 1012.0 |
| 20260503235555 | 19 | 270 | 0.0 | 0.0 | 0.00 | 0.00 | 0.00 | 87 | 1012.0 |
| 20260503234615 | 19 | 315 | 3.2 | 3.2 | 0.00 | 0.00 | 0.00 | 87 | 1012.2 |
| 20260503233553 | 19 | 270 | 3.2 | 3.2 | 0.00 | 0.00 | 0.00 | 87 | 1012.2 |
| 20260503232614 | 19 | 293 | 0.0 | 3.2 | 0.00 | 0.00 | 0.00 | 87 | 1012.2 |
| 20260503231553 | 18 | 315 | 1.6 | 3.2 | 0.00 | 0.00 | 0.00 | 87 | 1012.2 |
| 20260503230614 | 18 | 293 | 1.6 | 3.2 | 0.00 | 0.00 | 0.00 | 88 | 1012.2 |
| 20260503225552 | 19 | 203 | 0.0 | 0.0 | 0.00 | 0.00 | 0.00 | 88 | 1012.2 |
| 20260503224613 | 18 | 203 | 3.2 | 6.4 | 0.00 | 0.00 | 0.00 | 87 | 1012.1 |
| 20260503223553 | 18 | 293 | 3.2 | 6.4 | 0.00 | 0.00 | 0.00 | 88 | 1012.1 |
| 20260503222614 | 18 | 248 | 3.2 | 3.2 | 0.00 | 0.00 | 0.00 | 88 | 1012.0 |
| 20260503221553 | 18 | 248 | 3.2 | 8.0 | 0.00 | 0.00 | 0.00 | 88 | 1012.2 |
| 20260503220614 | 18 | 248 | 3.2 | 6.4 | 0.00 | 0.00 | 0.00 | 88 | 1012.1 |
| 20260503215552 | 18 | 225 | 3.2 | 3.2 | 0.00 | 0.00 | 0.00 | 88 | 1012.2 |